Regional Weather Roundup
Issued by NWS

Home | Current Version | Previous Version | Text Only | Print | Product List | Glossary Off
Versions: 1 2 3 4 5 6 7 8 9 10 11 12 13 14 15 16 17 18 19 20 21 22 23 24 25 26 27

000
ASUS45 KBOU 271807
RWRCO

WEATHER ROUNDUP FOR COLORADO
NATIONAL WEATHER SERVICE DENVER/BOULDER CO
1200 PM MDT SAT AUG 27 2016

NOTE: "FAIR" INDICATES FEW OR NO CLOUDS BELOW 12000 FEET WITH NO
SIGNIFICANT WEATHER AND/OR OBSTRUCTIONS TO VISIBILITY.

COZ001>005-013-030-031-271900-
...NORTHWEST COLORADO...

CITY           SKY/WX    TMP DP  RH WIND       PRES   REMARKS
CRAIG          FAIR      71  40  32 N3        30.22F
HAYDEN         FAIR      66  36  32 NW3       30.24F
MEEKER         FAIR      70  42  36 VRB3      30.23F
MOUNT WERNER   NOT AVBL
STEAMBOAT SPGS FAIR      66  38  35 SW12      30.25F
WALDEN         FAIR      63  28  27 SW10G18   30.32S
$$

COZ006>008-011-271900-
...WEST CENTRAL VALLEYS...

CITY           SKY/WX    TMP DP  RH WIND       PRES   REMARKS
GRAND JUNCTION FAIR      72  44  36 MISG      30.17F
MONTROSE       FAIR      70  46  42 N5        30.23F
EAGLE          SUNNY     68  41  37 CALM      30.27F
RIFLE          FAIR      64  50  60 CALM      30.22F
DELTA          NOT AVBL
NUCLA          PTSUNNY  N/A N/A N/A N3        30.26S
$$

COZ017>023-064>068-271900-
...SOUTHWEST COLORADO...

CITY           SKY/WX    TMP DP  RH WIND       PRES   REMARKS
DURANGO        FAIR      72  42  34 VRB6      30.26F
CORTEZ         FAIR      69  49  48 W3        30.22S
PAGOSA SPRINGS FAIR      66  35  32 SE9       30.33F
TELLURIDE      CLOUDY    55  41  59 SE5G18    30.42R
WOLF CREEK PAS FAIR      45  34  65 SW9G23    30.59S
$$

COZ009-010-012-014-032>034-037-058>063-271900-
...CENTRAL COLORADO...

CITY           SKY/WX    TMP DP  RH WIND       PRES   REMARKS
ASPEN          PTSUNNY   64  42  44 VRB5      30.31F
BUENA VISTA    PTSUNNY   67  35  30 E3        30.30F
COPPER MTN     PTSUNNY   50  32  50 NW10      30.55S
BERTHOUD PASS  FAIR      41  28  60 N12G20    30.56F
COTTONWOOD PAS CLOUDY    59  28  31 SW7       30.42F
GUNNISON       FAIR      63  39  42 W3        30.34F
KREMMLING      FAIR      68  36  30 CALM      30.30F
LEADVILLE      CLOUDY    54  28  36 VRB6      30.41F
MONARCH PASS   FAIR      46  32  57 SW14G20   30.66R
SALIDA         FAIR      71  39  31 CALM      30.34F
SUNLIGHT       PTSUNNY   50  41  71 CALM      30.52S
WILKERSON PASS FAIR      55  32  41 CALM      30.54S
$$

COZ069>075-271900-
...SAN LUIS VALLEY/SANGRE DE CRISTO MOUNTAINS...

CITY           SKY/WX    TMP DP  RH WIND       PRES   REMARKS
ALAMOSA        FAIR      67  38  34 S6G16     30.30F
LA VETA PASS   FAIR      59  36  41 S5G16     30.46R
SAGUACHE       CLOUDY    63  41  45 S5        30.33S
$$

COZ035-036-038>040-271900-
...NORTHERN COLORADO FRONT RANGE...

CITY           SKY/WX    TMP DP  RH WIND       PRES   REMARKS
DENVER INTL AP FAIR      78  37  22 E7        30.14F
DMNS CITY PARK   N/A     76  39  26 E10       30.12F
AURORA         MOSUNNY   76  37  23 NE7       30.16F
FRONT RANGE AP MOSUNNY   77  36  22 E8        30.16S
ERIE MUNI ARPT FAIR      80  34  19 SE7       30.12F
BOULDER MUN AP FAIR      77  41  27 NE5       30.12F HAZE
CENTENNIAL     FAIR      75  36  24 NE7       30.17S
BROOMFIELD     MOSUNNY   75  37  25 E9        30.15F
FORT COLLINS   FAIR      75  46  35 S7        30.10F
LONGMONT       FAIR      80  42  25 SE6       30.12F
$$

COZ041-046-047-076>085-087-088-271900-
...PIKES PEAK/PALMER DIVIDE AND SOUTHERN FOOTHILLS...

CITY           SKY/WX    TMP DP  RH WIND       PRES   REMARKS
COLO. SPRINGS  FAIR      77  30  17 CALM      30.18F
A. F. ACADEMY  PTSUNNY   74  33  22 N3        30.19S
SCHRIEVER AFB  NOT AVBL
ELLICOTT       NOT AVBL
FALCON         FAIR      74  32  21 CALM      30.24S
FORT CARSON    FAIR      76  42  30 VRB3      30.15F
LIMON          TSTM      62  48  60 N13G35    30.14R
MONUMENT HILL  FAIR      70  32  24 NW8G16    30.26R
TRINIDAD       FAIR      79  41  25 N7        30.15F
$$

COZ042>045-048>051-090-091-271900-
...NORTHEAST COLORADO...

CITY           SKY/WX    TMP DP  RH WIND       PRES   REMARKS
GREELEY ARPT   FAIR      77  48  36 CALM      30.11F
AKRON          FAIR      77  45  32 VRB5      30.11S
BURLINGTON     FAIR      73  57  57 E9        30.10F
WRAY           NOT AVBL
STERLING       FAIR      75  54  46 SE5       30.06F
HOLYOKE        CLOUDY    70  61  73 SW8       30.08F
FORT MORGAN    FAIR      78  48  34 SE5       30.10F
$$

COZ086-089-092>099-271900-
...SOUTHEAST COLORADO...

CITY           SKY/WX    TMP DP  RH WIND       PRES   REMARKS
PUEBLO         FAIR      85  37  18 S7        30.08S
LA JUNTA       FAIR      81  53  37 VRB7      30.07F
LAMAR          FAIR      80  58  46 NE8       30.03F
SPRINGFIELD      N/A     79  55  43 E6        30.08S
$$




USA.gov is the U.S. government's official web portal to all federal, state and local government web resources and services.